Location: Vassar Physics Lab
(41.6843°N, 73.8954°W)
Time: 05:29:49
(UTC-04:00)

Daily predictions for brighter satellites

Satellite Brightness Start Highest point End
(mag) Time Altitude Azimuth Time Altitude Azimuth Time Altitude Azimuth
ATLAS 2AS CENTAUR R/B 2.9 00:08:09 80° E 00:08:09 80° E 00:16:01 10° NE
CZ-2C R/B 4.3 00:20:41 36° N 00:20:41 36° N 00:23:39 10° N
Cosmos 2184 Rocket 4.3 00:15:37 10° N 00:21:02 65° NNE 00:21:02 65° NNE
Terra 4.4 00:23:55 12° WNW 00:23:55 12° WNW 00:24:45 10° WNW
ATLAS 3B R/B 2.8 00:29:15 10° NNW 00:35:08 67° NNW 00:35:08 67° NNW
Cosmos 1607 4.4 00:33:33 10° NW 00:38:30 57° NW 00:38:30 57° NW
ATLAS CENTAUR R/B 4.0 00:42:33 18° NNW 00:42:33 18° NNW 00:44:15 10° N
Cosmos 2369 Rocket 3.2 00:36:18 10° NNW 00:40:34 43° NNE 00:40:34 43° NNE
Cosmos 1943 Rocket 3.6 00:44:10 10° N 00:49:01 32° NE 00:49:01 32° NE
USA 238 DEB 3.8 00:53:20 10° NW 00:59:41 73° NNW 00:59:41 73° NNW
USA 238 3.8 00:53:26 10° NW 00:59:49 74° NNW 00:59:49 74° NNW
Cosmos 2154 Rocket 4.3 00:55:13 10° N 01:00:21 62° N 01:00:21 62° N
SL-16 R/B 4.0 01:04:05 22° WNW 01:04:55 22° NW 01:09:19 10° N
USA 215 4.4 01:09:22 10° ENE 01:13:16 31° E 01:13:16 31° E
CZ-2C R/B 4.1 01:21:53 10° N 01:25:58 31° NW 01:25:58 31° NW
NOSS 3-2 (C) 4.3 01:24:56 10° NNW 01:32:22 62° NE 01:34:43 45° ESE
Cosmos 2181 Rocket 4.3 01:46:45 64° NW 01:46:45 64° NW 01:52:28 10° N
Cosmos 2366 rocket 4.2 01:40:30 10° N 01:46:20 65° NE 01:46:20 65° NE
Cosmos 2218 Rocket 4.2 01:40:58 10° N 01:46:29 68° NNE 01:46:29 68° NNE
COSMOS 2455 3.4 01:47:56 10° NNW 01:53:48 51° NE 01:54:22 49° ENE
SL-8 Rocket 4.2 01:50:57 10° N 01:56:08 62° NNW 01:56:08 62° NNW
Cosmos 1943 4.1 01:58:32 40° NW 01:58:32 40° NW 02:03:10 10° NNE
NOSS 3-4 (A) 3.6 01:59:15 72° NE 01:59:15 72° NE 02:05:05 10° NE
NOSS 3-4 (C) 3.6 01:59:22 72° NE 01:59:22 72° NE 02:05:11 10° NE
SL-16 R/B 4.5 01:54:53 11° ESE 01:59:19 23° ENE 02:03:57 10° NNE
ATLAS 2AS CENTAUR R/B 4.4 01:55:31 20° W 01:59:49 31° NW 02:06:53 10° NNE
NOSS 3-2 (A) 3.9 02:03:51 10° NW 02:11:09 70° WSW 02:11:09 70° WSW
CZ-2D R/B 4.1 02:10:39 10° NE 02:14:03 17° E 02:14:59 16° ESE
Cosmos 2369 Rocket 4.3 02:21:05 10° NW 02:22:21 15° WNW 02:22:21 15° WNW
BREEZE M DEB (TANK) 4.3 02:07:55 10° WNW 02:28:31 61° SW 02:28:58 60° SW
Cosmos 1943 Rocket 3.7 02:27:48 10° NW 02:30:31 26° WNW 02:30:31 26° WNW
Nadezhda 3 Rocket 3.9 02:35:15 72° SE 02:35:46 76° E 02:42:07 10° N
Cosmos 2112 Rocket 4.2 02:45:01 64° NNW 02:45:01 64° NNW 02:49:46 10° NNE
IRS-1C 4.4 02:41:38 10° NNE 02:46:55 59° E 02:47:12 58° ESE
Aureole 1 Rocket 4.1 02:49:14 41° NNW 02:49:14 41° NNW 02:52:14 10° N
Meteor 2-8 Rocket 4.4 02:47:57 66° SSE 02:48:44 75° E 02:54:53 10° NNE
Lacrosse 5 rocket 2.1 02:52:20 56° ENE 02:52:20 56° ENE 02:56:06 10° NE
AQUA 3.9 02:51:43 10° NNE 02:56:10 76° NE 02:56:10 76° NE
Cosmos 1842 4.4 02:59:23 40° N 02:59:23 40° N 03:01:58 10° N
USA 215 3.5 02:52:12 10° NE 02:58:38 61° NW 03:00:37 44° W
Cosmos 1624 Rocket 4.0 02:54:09 10° NNW 02:59:23 78° ENE 02:59:55 69° SE
COSMOS 2406 3.2 03:02:16 64° W 03:02:38 65° WNW 03:08:22 10° NNE
IRS-P3 4.2 03:04:57 10° N 03:10:11 57° WNW 03:10:22 57° W
Cosmos 1825 Rocket 3.6 03:11:55 75° N 03:11:55 75° N 03:15:58 10° N
NOSS 2-2 (E) 3.6 03:12:11 74° NNE 03:12:11 74° NNE 03:16:32 10° NE
Cosmos 2056 Rocket 3.4 03:08:02 10° NNW 03:13:23 86° WSW 03:14:02 69° S
Spot 4 Rocket 4.1 03:09:23 10° NNE 03:14:33 73° ESE 03:15:25 59° SSE
ADEOS Rocket 3.3 03:09:35 10° NNE 03:15:45 67° ESE 03:18:33 37° S
Cosmos 389 Rocket 4.1 03:13:44 10° N 03:17:02 32° ENE 03:17:43 29° E
USA 32 4.0 03:17:06 58° SSE 03:18:08 78° E 03:23:23 10° N
Cosmos 1707 4.3 03:18:32 26° ESE 03:19:22 29° E 03:22:44 10° NNE
Cosmos 1821 Rocket 3.8 03:13:23 10° NNW 03:19:29 73° W 03:20:58 53° SSW
CBERS-1 4.2 03:15:28 10° N 03:20:26 54° WNW 03:20:41 53° W
RESURS DK-1 3.9 03:21:41 27° NW 03:21:41 27° NW 03:24:46 10° N
CENTAUR R/B 3.0 03:15:40 10° NW 03:23:37 83° WSW 03:32:04 10° SSE
Cosmos 2239 Rocket 4.5 03:22:00 10° NNW 03:28:03 61° W 03:29:26 49° SW
USA 267 3.3 03:24:17 10° SE 03:30:50 82° NE 03:37:24 10° NW
SL-27 R/B 4.1 03:33:10 27° NW 03:33:10 27° NW 03:35:30 10° N
Cosmos 1470 3.1 03:29:55 10° N 03:33:48 61° E 03:34:35 49° SE
Resurs 1-4 Rocket 2.0 03:28:31 10° NNE 03:33:49 88° WNW 03:35:17 50° SSW
Cosmos 1934 Rocket 3.9 03:29:41 10° NNW 03:35:58 71° W 03:38:36 37° SSW
IRS-1D 3.5 03:32:50 10° N 03:38:05 79° WNW 03:39:35 48° SSW
COSMOS 2455 4.2 03:34:29 10° NW 03:37:27 22° WNW 03:37:27 22° WNW
Cosmos 1605 Rocket 3.9 03:34:06 10° N 03:40:21 88° E 03:44:26 22° S
Okean O Rocket 4.3 03:38:54 10° ENE 03:41:21 15° E 03:43:47 10° SE
SL-16 R/B 2.5 03:39:57 36° SSW 03:42:27 62° WSW 03:48:34 10° NNW
ARIANE 5 R/B 2.5 03:37:56 10° N 03:43:10 76° WNW 03:44:46 45° SSW
ADEOS 3.5 03:39:04 10° N 03:44:18 73° WNW 03:45:53 45° SW
Cosmos 1452 Rocket 3.5 03:42:50 10° NNW 03:48:07 80° ENE 03:53:23 10° SSE
NOSS 2-2 (D) 4.0 03:47:55 42° WNW 03:48:37 47° NW 03:53:11 10° NNE
USA 161 2.9 03:48:07 29° ESE 03:48:56 36° ENE 03:51:35 10° N
Cosmos 1953 3.1 03:46:41 10° NNW 03:49:46 36° WNW 03:49:46 36° WNW
UNKNOWN OBJECT B 3.0 03:47:33 10° NNE 03:51:35 73° ESE 03:52:52 42° S
Cosmos-2242 2.9 03:48:58 10° N 03:53:24 84° W 03:55:11 35° S
Cosmos 1697 Rocket 4.0 03:49:04 10° N 03:54:23 41° ENE 03:59:39 10° SE
CZ-2D R/B 2.2 03:49:20 10° N 03:54:32 59° WNW 03:56:19 38° SW
Cosmos 1733 3.0 03:52:04 10° NNW 03:55:50 70° W 03:56:18 61° SW
MOS 1 Rocket 3.8 03:53:09 10° NNE 03:57:26 51° E 04:00:29 19° S
Cosmos 921 Rocket 3.9 03:54:51 10° NW 03:58:27 33° W 03:58:27 33° W
Cosmos 1420 Rocket 4.3 03:56:36 10° NNW 04:01:56 70° ENE 04:07:11 10° SSE
Tiangong 1 3.6 04:06:25 10° SE 04:06:25 10° SE 04:06:27 10° SE
MOZ.5/SAFIR/RUBIN 5/SL-8 3.7 04:01:44 16° S 04:05:25 84° WSW 04:10:09 10° NNW
Cosmos 1842 Rocket 4.2 04:01:07 10° N 04:05:30 57° E 04:09:51 10° SSE
Cosmos 2278 3.6 04:00:38 10° NNW 04:06:22 80° WSW 04:12:04 10° SSE
Cosmos 1758 Rocket 4.4 04:06:30 31° W 04:06:59 31° WNW 04:10:53 10° NNW
Cosmos 1048 Rocket 4.4 04:04:12 20° S 04:07:41 58° ESE 04:12:42 10° NNE
Cosmos 839 Rocket 4.3 04:03:12 10° NW 04:09:27 58° WSW 04:16:55 10° SSE
COSMOS 2487 2.6 04:10:22 48° WSW 04:11:01 57° WNW 04:14:33 10° N
EXPRESS MD2 3.5 04:06:08 10° WNW 04:12:08 75° NNE 04:15:11 10° ESE
Cosmos 2100 Rocket 4.2 04:08:08 10° N 04:14:20 70° E 04:20:26 10° SSE
Cosmos 2369 3.6 04:09:20 10° NNW 04:15:04 69° WSW 04:20:44 10° SSE
Cosmos 2173 Rocket 4.4 04:10:26 10° N 04:16:42 67° E 04:22:49 10° SSE
Cosmos 1818 4.4 04:14:38 24° W 04:17:13 37° NW 04:22:16 10° NNE
Cosmos 1656 3.6 04:13:26 10° NNW 04:18:54 89° ENE 04:24:20 10° SSE
CZ-2D R/B 3.4 04:15:58 10° N 04:19:57 62° WNW 04:21:47 30° SW
Meteor 2-15 4.5 04:20:54 20° SSW 04:25:15 63° W 04:31:20 10° N
Cosmos 1833 Rocket 2.7 04:21:58 20° SSW 04:26:01 87° ESE 04:31:40 10° NNE
Cosmos 1269 Rocket 4.0 04:23:55 18° SSW 04:27:54 87° ESE 04:33:13 10° NNE
Cosmos 1980 Rocket 3.3 04:24:01 10° NNW 04:29:32 47° ENE 04:34:58 10° SE
GEOS 3 Rocket 4.2 04:25:32 10° NNE 04:30:35 48° NW 04:34:03 20° WSW
Lacrosse 5 rocket 3.3 04:28:02 13° WNW 04:31:09 25° NNW 04:34:59 10° NNE
Cosmos 2082 Rocket 2.2 04:27:14 20° SSW 04:31:21 79° WNW 04:37:05 10° NNE
DNEPR-1 R/B 4.2 04:29:23 10° NW 04:33:10 31° WSW 04:37:11 10° S
ADEOS II 2.8 04:29:11 10° NNE 04:34:20 53° E 04:39:28 10° S
Meteor 2-5 Rocket 4.1 04:37:49 17° SW 04:42:08 50° WNW 04:47:50 10° N
CZ-4B R/B 3.9 04:36:55 10° NNE 04:42:09 53° E 04:47:18 10° S
Landsat 4 3.8 04:42:53 10° S 04:46:30 51° W 04:50:10 10° NNW
Cosmos 2061 Rocket 3.9 04:42:05 10° N 04:48:19 76° W 04:54:28 10° S
Cosmos 389 Rocket 4.4 04:49:39 10° NW 04:51:34 14° W 04:51:42 14° W
Cosmos 1378 4.2 04:49:57 18° WSW 04:51:52 28° WNW 04:55:08 10° NNW
Cosmos 2098 Rocket 4.4 04:51:47 10° WNW 04:51:55 10° WNW 04:51:55 10° WNW
Cosmos 158 Rocket 4.0 04:48:18 13° SSW 04:52:40 62° WNW 04:57:49 10° NNE
GPS 2-05 Rocket1 4.0 04:52:41 17° SW 04:54:41 29° S 04:57:46 10° ESE
Cosmos 2016 Rocket 4.0 04:48:48 10° N 04:55:06 86° W 05:01:26 10° S
Cosmos 1707 4.4 04:53:46 15° WSW 04:55:20 18° WNW 04:58:04 10° NNW
PAYLOAD B 4.4 04:49:58 10° NNE 04:55:34 78° ESE 05:01:06 10° S
Cosmos 2123 Rocket 4.3 04:50:22 10° S 04:56:38 71° E 05:02:54 10° NNE
Meteor 2-1 Rocket 4.2 04:52:17 10° NNW 04:57:56 71° W 05:03:41 10° S
CZ-4B R/B 3.1 04:56:16 10° N 05:00:38 78° WNW 05:05:08 10° SSW
ADEOS Rocket 4.5 04:56:19 10° NNW 05:00:50 22° WNW 05:05:31 10° WSW
Okean 3 Rocket 3.5 04:58:03 10° S 05:02:27 82° W 05:06:55 10° N
Cosmos 1908 3.8 05:04:08 10° N 05:07:59 61° E 05:11:48 10° SSE
In-Cosmos 22 4.1 05:04:21 10° SSW 05:09:37 68° W 05:14:54 10° N
Cosmos 1076 Rocket 3.6 05:06:26 10° S 05:10:39 82° E 05:14:55 10° N
Resurs 1-4 Rocket 4.1 05:10:46 10° NW 05:12:51 12° WNW 05:14:56 10° W
CENTAUR R/B 4.2 05:08:14 10° WNW 05:13:29 19° WSW 05:18:52 10° SW
Cosmos 1459 Rocket 4.4 05:08:08 10° NNW 05:13:55 43° W 05:19:46 10° SSW
USA 267 4.0 05:08:51 10° S 05:14:15 27° SW 05:19:40 10° WNW
Cosmos 494 Rocket 4.2 05:09:43 10° S 05:14:48 73° ESE 05:19:55 10° NNE
BREEZE-M DEB (TANK) 4.2 05:08:41 10° SW 05:16:09 42° SSE 05:19:18 10° E
Cosmos 1766 Rocket 4.1 05:12:36 10° S 05:17:02 67° E 05:21:29 10° NNE
Okean O Rocket 1.9 05:13:43 10° N 05:18:01 52° WNW 05:22:16 10° SSW
Cosmos 1802 Rocket 4.3 05:12:18 10° NNW 05:18:26 48° W 05:24:29 10° SSW
Orbus 7S? 3.8 05:18:19 10° WNW 05:20:32 20° SW 05:22:35 10° S
Gbstr 26 Del rocket 4.3 05:15:57 10° NW 05:23:43 88° NE 05:30:11 10° SE
Cosmos 1725 Rocket 4.0 05:22:17 10° NNW 05:28:31 69° W 05:34:45 10° S
